Total_Precipitation_Accumulation
2.49 2.65 4.03 4.20 3.80 3.61 3.46 3.44 3.34 3.40 3.47 3.39 3.12 2.97 2.90 2.85 2.83 2.76 2.55 2.48 2.51 2.64 2.70 2.85 2.90 2.87 2.98 3.05 3.12 3.15 3.20 3.49 3.80 3.67 3.35 3.08 3.08 3.21 3.28 3.27 3.07 2.95 3.49
2.14 2.71 3.95 3.92 3.65 3.52 3.35 3.24 3.15 3.16 3.22 3.19 3.17 3.00 2.90 2.81 2.75 2.56 2.46 2.48 2.54 2.56 2.58 2.71 2.80 2.81 2.87 2.96 3.11 3.31 3.42 3.57 3.72 3.62 3.50 3.32 3.34 3.29 3.20 3.15 3.18 3.18 3.30
1.97 2.30 2.96 3.79 3.65 3.37 3.21 3.22 3.28 3.44 3.18 2.93 2.89 2.79 2.68 2.68 2.61 2.52 2.55 2.58 2.68 2.56 2.41 2.60 2.91 2.94 2.94 2.97 3.06 3.22 3.28 3.33 3.39 3.53 3.93 4.06 3.73 3.59 3.20 3.13 3.15 3.02 2.99
1.73 1.99 2.39 3.38 3.30 3.20 3.17 3.14 3.34 3.12 2.74 2.61 2.62 2.56 2.50 2.59 2.75 2.82 2.80 2.80 2.84 2.59 2.36 2.43 2.84 2.90 2.85 2.71 2.55 2.66 2.83 3.01 3.24 3.49 3.84 4.27 4.09 3.82 3.42 3.19 3.13 2.97 2.87
1.71 2.00 2.78 3.39 3.18 3.14 3.09 3.09 3.08 2.83 2.64 2.49 2.42 2.42 2.51 2.73 2.87 2.89 2.96 2.90 2.83 2.57 2.44 2.51 2.86 2.73 2.65 2.56 2.42 2.46 2.57 2.80 3.13 2.96 3.33 3.85 4.26 4.30 3.53 3.19 3.15 3.15 3.19
1.74 1.99 2.68 3.10 2.87 2.84 2.99 3.02 2.77 2.75 2.78 2.49 2.32 2.41 2.65 3.04 3.07 3.12 3.12 2.81 2.72 2.57 2.55 2.63 2.80 2.74 2.62 2.56 2.47 2.34 2.41 2.71 2.62 2.56 3.08 3.59 3.92 4.04 3.44 3.19 3.18 3.29 3.39
1.46 1.66 2.25 2.83 2.65 2.67 2.80 2.72 2.55 2.59 2.66 2.55 2.37 2.56 2.84 3.22 3.32 3.25 3.02 2.70 2.67 2.65 2.69 2.85 2.85 2.87 2.75 2.56 2.53 2.41 2.39 2.49 2.22 2.46 2.96 3.52 3.72 3.61 3.41 3.22 3.11 3.33 3.58
1.41 1.41 1.70 2.30 2.51 2.53 2.51 2.55 2.48 2.43 2.47 2.42 2.37 2.46 2.68 3.17 3.29 3.20 3.02 2.79 2.65 2.68 2.87 3.15 3.05 2.89 2.67 2.54 2.59 2.64 2.62 2.33 1.91 2.03 2.44 3.31 4.01 3.80 3.36 3.14 3.13 3.24 3.46
1.69 1.57 1.48 1.60 1.89 2.21 2.27 2.36 2.41 2.35 2.26 2.16 2.27 2.39 2.80 3.31 3.15 2.99 2.91 2.81 2.75 2.83 2.91 3.08 2.98 2.84 2.73 2.67 2.60 2.65 2.70 2.54 2.15 2.08 2.09 3.02 3.94 3.94 3.45 3.13 3.03 3.17 3.28
1.84 1.68 1.43 1.32 1.42 1.72 1.84 2.01 2.26 2.29 2.18 2.05 2.13 2.32 2.67 3.21 3.02 2.81 2.67 2.90 3.15 3.30 3.36 3.35 3.12 2.91 2.82 2.63 2.56 2.70 2.70 2.39 2.08 1.96 2.30 3.06 4.07 4.18 3.89 3.30 2.95 2.90 2.96
1.69 1.55 1.36 1.26 1.33 1.48 1.64 1.74 2.12 2.15 2.01 1.83 1.82 2.10 2.28 2.58 2.58 2.63 2.74 3.09 3.12 3.14 3.23 3.31 3.22 2.94 2.61 2.48 2.58 2.63 2.37 2.07 2.13 2.09 2.59 3.47 4.06 4.16 4.03 3.63 3.07 2.67 2.59
1.38 1.26 1.18 1.13 1.18 1.29 1.36 1.77 2.12 1.89 1.80 1.59 1.63 1.72 1.91 2.28 2.59 2.33 2.65 3.15 3.10 3.02 2.94 3.06 3.02 2.58 2.06 1.77 2.04 2.06 1.86 2.01 2.19 2.12 2.82 3.69 4.07 4.06 3.80 3.66 3.14 2.75 2.51
1.08 1.01 0.92 0.84 0.82 0.89 1.15 1.53 1.89 2.02 2.01 2.02 1.86 1.76 1.84 1.75 1.90 1.83 1.86 2.10 2.20 2.24 2.16 2.29 2.38 2.07 1.76 1.68 1.71 1.73 1.91 2.00 2.39 2.46 3.03 3.72 4.05 4.14 3.90 3.76 3.25 2.87 2.69
0.97 0.94 0.84 0.77 0.73 0.74 0.85 1.09 1.35 1.53 1.61 1.70 1.63 1.49 1.63 1.60 1.65 1.71 1.68 1.59 1.55 1.63 1.80 1.87 2.01 1.98 1.76 1.67 1.69 1.82 1.91 1.96 2.24 2.71 3.26 3.45 3.81 4.17 4.01 3.75 3.44 3.19 2.98
1.07 1.05 0.94 0.81 0.79 0.81 0.89 0.95 1.04 1.24 1.31 1.33 1.42 1.38 1.44 1.59 1.65 1.64 1.48 1.44 1.33 1.38 1.51 1.67 1.75 1.80 1.86 1.83 1.74 1.88 1.92 2.05 2.15 2.31 2.74 3.02 3.33 3.91 4.24 4.09 3.73 3.47 3.33
1.17 1.12 1.07 0.95 0.94 0.92 0.91 0.93 0.98 1.05 1.11 1.13 1.14 1.14 1.28 1.50 1.54 1.58 1.52 1.53 1.47 1.45 1.55 1.55 1.48 1.66 1.84 1.78 1.67 1.65 1.71 1.85 2.01 2.06 2.28 2.57 2.90 3.30 4.05 4.43 4.27 4.01 4.02
1.12 1.07 1.09 1.08 1.09 1.08 1.05 0.97 0.94 1.06 1.21 1.16 1.09 0.99 1.03 1.24 1.34 1.44 1.48 1.45 1.45 1.54 1.58 1.64 1.47 1.53 1.56 1.59 1.62 1.60 1.56 1.64 1.74 1.83 1.78 1.91 2.13 2.55 3.30 4.06 4.54 4.52 4.54
0.93 0.93 1.00 0.99 1.04 1.10 1.09 1.09 1.12 1.14 1.22 1.15 1.12 1.04 1.00 1.09 1.22 1.39 1.43 1.38 1.36 1.54 1.67 1.77 1.67 1.64 1.61 1.61 1.66 1.71 1.63 1.66 1.58 1.64 1.66 1.62 1.86 1.90 2.39 3.11 3.71 3.98 4.36
0.86 0.87 0.88 0.93 0.91 0.99 1.05 1.07 1.20 1.25 1.27 1.22 1.19 1.11 1.10 1.19 1.31 1.49 1.59 1.60 1.56 1.57 1.62 1.61 1.72 1.73 1.71 1.72 1.66 1.66 1.67 1.65 1.69 1.60 1.66 1.67 1.64 1.77 2.00 2.32 2.81 3.23 3.65
0.84 0.85 0.83 0.85 0.86 0.88 1.02 1.12 1.30 1.43 1.42 1.41 1.31 1.24 1.29 1.44 1.60 1.76 1.77 1.86 1.91 1.81 1.81 1.78 1.84 1.81 1.72 1.78 1.65 1.57 1.58 1.53 1.69 1.80 1.78 1.81 1.74 1.70 2.05 2.30 2.35 2.43 2.93
0.80 0.83 0.83 0.80 0.85 0.89 0.94 1.06 1.30 1.57 1.68 1.80 1.70 1.46 1.39 1.53 1.84 2.14 2.13 2.20 2.27 2.20 2.16 2.14 2.36 2.30 2.02 1.83 1.95 1.82 1.68 1.58 1.78 1.84 1.86 2.02 2.05 2.11 2.31 2.33 2.19 2.11 2.12
0.66 0.73 0.78 0.76 0.82 0.85 0.90 1.08 1.25 1.41 1.42 1.58 1.69 1.62 1.52 1.52 1.71 1.90 2.22 2.38 2.37 2.50 2.59 2.56 2.91 3.04 2.52 2.08 2.26 2.55 2.32 2.17 1.98 1.81 1.87 2.02 2.21 2.39 2.47 2.31 2.13 1.99 1.93
0.57 0.57 0.62 0.66 0.74 0.86 0.98 1.18 1.40 1.65 1.73 1.73 1.61 1.70 1.69 1.58 1.66 1.80 1.98 2.17 2.27 2.42 2.59 2.69 2.99 3.52 3.28 2.59 2.43 2.91 2.76 2.60 2.45 2.09 1.90 1.92 2.07 2.39 2.65 2.54 2.28 2.08 1.93
0.56 0.58 0.63 0.73 0.85 1.04 1.22 1.42 1.63 1.82 1.88 1.75 1.74 1.77 1.64 1.54 1.53 1.66 1.80 1.95 2.14 2.22 2.41 2.48 2.58 3.14 3.56 3.22 2.93 2.62 2.33 2.35 2.56 2.55 2.17 1.96 1.96 2.16 2.44 2.42 2.26 2.23 2.10
0.68 0.77 0.84 0.99 1.18 1.41 1.60 1.85 2.12 2.08 1.98 1.89 1.81 1.77 1.71 1.68 1.63 1.63 1.81 1.88 1.92 2.04 2.21 2.54 2.80 3.07 3.32 3.36 3.34 3.11 2.79 2.53 2.20 2.51 2.62 2.28 2.11 2.07 2.18 2.28 2.20 2.22 2.21
1.01 1.20 1.42 1.65 1.79 1.87 1.94 2.07 2.18 2.13 2.13 2.08 1.88 1.77 1.75 1.77 1.81 1.80 1.84 1.86 1.84 1.89 2.05 2.34 2.67 2.90 3.21 3.45 3.43 3.23 3.09 2.96 2.70 2.63 2.54 2.42 2.43 2.28 2.15 2.15 2.03 2.04 2.24